• In Hungary
  • List of Countries
  • For 7 days
  • Water Temperature
  • Satellite Maps
  • Weather Map
  • News
  • Weather Widgets
  • user-avatar
    Login

    Hourly Weather Sinemorec

    Today, 11 December, Monday

    Time Temperature Precipitation Wind Pressure Humidity
    00:00 +3°C° 0 mm 3 mps 763 mmHg 56%
    01:00 +3°C° 0 mm 3 mps 763 mmHg 53%
    02:00 +3°C° 0 mm 3 mps 763 mmHg 49%
    03:00 +3°C° 0 mm 4 mps 763 mmHg 53%
    04:00 +2°C° 0 mm 5 mps 762 mmHg 58%
    05:00 +3°C° 0 mm 5 mps 762 mmHg 62%
    06:00 +3°C° 0 mm 6 mps 762 mmHg 65%
    07:00 +4°C° 0 mm 6 mps 762 mmHg 68%
    08:00 +4°C° 0 mm 6 mps 762 mmHg 71%
    09:00 +7°C° 0 mm 6 mps 763 mmHg 68%
    10:00 +8°C° 0 mm 7 mps 763 mmHg 64%
    11:00 +10°C° 0 mm 7 mps 763 mmHg 61%
    12:00 +11°C° 0 mm 7 mps 763 mmHg 62%
    13:00 +12°C° 0 mm 7 mps 763 mmHg 62%
    14:00 +12°C° 0 mm 7 mps 763 mmHg 63%
    15:00 +12°C° 0 mm 7 mps 763 mmHg 69%
    16:00 +11°C° 0 mm 6 mps 763 mmHg 75%
    17:00 +11°C° 0 mm 6 mps 763 mmHg 81%
    18:00 +10°C° 0 mm 6 mps 763 mmHg 82%
    19:00 +10°C° 0 mm 6 mps 763 mmHg 84%
    20:00 +10°C° 0 mm 6 mps 763 mmHg 85%
    21:00 +10°C° 0 mm 6 mps 763 mmHg 87%
    22:00 +10°C° 0 mm 6 mps 763 mmHg 88%
    23:00 +10°C° 0 mm 6 mps 763 mmHg 89%

    Tomorrow, 12 December, Tuesday

    Time Temperature Precipitation Wind Pressure Humidity
    00:00 +10°C° 0 mm 6 mps 763 mmHg 89%
    01:00 +10°C° 0 mm 6 mps 763 mmHg 89%
    02:00 +10°C° 0 mm 6 mps 763 mmHg 90%
    03:00 +10°C° 0 mm 6 mps 763 mmHg 90%
    04:00 +10°C° 0 mm 6 mps 763 mmHg 90%
    05:00 +10°C° 0 mm 6 mps 763 mmHg 90%
    06:00 +10°C° 0 mm 6 mps 763 mmHg 90%
    07:00 +9°C° 0 mm 6 mps 763 mmHg 90%
    08:00 +9°C° 0 mm 6 mps 764 mmHg 90%
    09:00 +11°C° 0 mm 6 mps 764 mmHg 83%
    10:00 +13°C° 0 mm 6 mps 764 mmHg 76%
    11:00 +14°C° 0 mm 6 mps 764 mmHg 69%
    12:00 +15°C° 0 mm 6 mps 764 mmHg 67%
    13:00 +15°C° 0 mm 5 mps 763 mmHg 65%
    14:00 +15°C° 0 mm 5 mps 763 mmHg 62%
    15:00 +15°C° 0 mm 5 mps 763 mmHg 66%
    16:00 +14°C° 0 mm 5 mps 763 mmHg 69%
    17:00 +13°C° 0 mm 4 mps 763 mmHg 72%
    18:00 +12°C° 0 mm 4 mps 763 mmHg 75%
    19:00 +12°C° 0 mm 4 mps 764 mmHg 77%
    20:00 +11°C° 0 mm 4 mps 764 mmHg 80%
    21:00 +11°C° 0 mm 4 mps 764 mmHg 83%
    22:00 +11°C° 0 mm 4 mps 764 mmHg 85%
    23:00 +10°C° 0 mm 4 mps 764 mmHg 88%

    Day after tomorrow, 13 December, Wednesday

    Time Temperature Precipitation Wind Pressure Humidity
    00:00 +10°C° 0 mm 3 mps 764 mmHg 89%
    01:00 +10°C° 0 mm 3 mps 764 mmHg 91%
    02:00 +10°C° 0 mm 3 mps 764 mmHg 92%
    03:00 +10°C° 0 mm 3 mps 763 mmHg 93%
    04:00 +9°C° 0 mm 3 mps 763 mmHg 93%
    05:00 +9°C° 0 mm 3 mps 763 mmHg 94%
    06:00 +9°C° 0 mm 3 mps 763 mmHg 95%
    07:00 +9°C° 0 mm 3 mps 763 mmHg 95%
    08:00 +10°C° 0 mm 3 mps 763 mmHg 96%
    09:00 +11°C° 0 mm 3 mps 763 mmHg 92%
    10:00 +12°C° 0 mm 3 mps 763 mmHg 88%
    11:00 +13°C° 0 mm 3 mps 763 mmHg 83%
    12:00 +14°C° 0 mm 3 mps 763 mmHg 81%
    13:00 +16°C° 0 mm 3 mps 762 mmHg 78%
    14:00 +16°C° 0 mm 3 mps 762 mmHg 75%
    15:00 +14°C° 0 mm 3 mps 762 mmHg 80%
    16:00 +13°C° 0 mm 3 mps 762 mmHg 84%
    17:00 +12°C° 0 mm 3 mps 762 mmHg 89%
    18:00 +12°C° 0 mm 3 mps 762 mmHg 91%
    19:00 +12°C° 0 mm 3 mps 761 mmHg 92%
    20:00 +11°C° 0 mm 3 mps 761 mmHg 94%
    21:00 +11°C° 0 mm 3 mps 761 mmHg 94%
    22:00 +11°C° 0 mm 3 mps 761 mmHg 95%
    23:00 +11°C° 0 mm 4 mps 760 mmHg 95%

    14 December, Thursday

    Time Temperature Precipitation Wind Pressure Humidity
    00:00 +11°C° 0 mm 4 mps 760 mmHg 94%
    01:00 +11°C° 0 mm 4 mps 760 mmHg 94%
    02:00 +11°C° 0 mm 4 mps 759 mmHg 93%
    03:00 +11°C° 0 mm 4 mps 759 mmHg 93%
    04:00 +11°C° 0 mm 4 mps 759 mmHg 93%
    05:00 +11°C° 0 mm 4 mps 759 mmHg 93%
    06:00 +11°C° 0 mm 4 mps 759 mmHg 93%
    07:00 +12°C° 0 mm 4 mps 759 mmHg 93%
    08:00 +12°C° 0 mm 4 mps 759 mmHg 93%
    09:00 +12°C° 0.1 mm 4 mps 760 mmHg 91%
    10:00 +12°C° 0.1 mm 4 mps 760 mmHg 89%
    11:00 +13°C° 0.1 mm 3 mps 760 mmHg 86%
    12:00 +14°C° 0.1 mm 3 mps 760 mmHg 81%
    13:00 +14°C° 0.1 mm 3 mps 759 mmHg 75%
    14:00 +16°C° 0.1 mm 2 mps 759 mmHg 70%
    15:00 +15°C° 0 mm 2 mps 759 mmHg 74%
    16:00 +14°C° 0 mm 2 mps 760 mmHg 78%
    17:00 +13°C° 0 mm 1 mps 760 mmHg 83%
    18:00 +12°C° 0 mm 1 mps 760 mmHg 85%
    19:00 +12°C° 0 mm 1 mps 760 mmHg 87%
    20:00 +11°C° 0 mm 1 mps 761 mmHg 89%
    21:00 +11°C° 0 mm 1 mps 761 mmHg 90%
    22:00 +11°C° 0 mm 1 mps 761 mmHg 92%
    23:00 +10°C° 0 mm 2 mps 761 mmHg 93%

    15 December, Friday

    Time Temperature Precipitation Wind Pressure Humidity
    00:00 +10°C° 0 mm 2 mps 761 mmHg 94%
    01:00 +10°C° 0 mm 2 mps 760 mmHg 95%
    02:00 +9°C° 0 mm 2 mps 760 mmHg 96%
    03:00 +9°C° 0 mm 2 mps 760 mmHg 96%
    04:00 +9°C° 0 mm 3 mps 760 mmHg 96%
    05:00 +9°C° 0 mm 3 mps 760 mmHg 97%
    06:00 +9°C° 0 mm 3 mps 760 mmHg 96%
    07:00 +9°C° 0 mm 3 mps 760 mmHg 95%
    08:00 +9°C° 0 mm 3 mps 760 mmHg 95%
    09:00 +10°C° 0 mm 4 mps 760 mmHg 88%
    10:00 +12°C° 0 mm 4 mps 760 mmHg 82%
    11:00 +14°C° 0 mm 4 mps 760 mmHg 75%
    12:00 +14°C° 0 mm 4 mps 760 mmHg 72%
    13:00 +15°C° 0 mm 4 mps 759 mmHg 70%
    14:00 +15°C° 0 mm 5 mps 759 mmHg 67%
    15:00 +14°C° 0 mm 5 mps 759 mmHg 71%
    16:00 +13°C° 0 mm 5 mps 759 mmHg 75%
    17:00 +13°C° 0 mm 5 mps 759 mmHg 79%
    18:00 +12°C° 0 mm 5 mps 759 mmHg 81%
    19:00 +12°C° 0 mm 5 mps 759 mmHg 83%
    20:00 +12°C° 0 mm 5 mps 758 mmHg 85%
    21:00 +12°C° 0 mm 5 mps 758 mmHg 84%
    22:00 +12°C° 0 mm 5 mps 758 mmHg 84%
    23:00 +10°C° 0 mm 6 mps 758 mmHg 84%

    16 December, Saturday

    Time Temperature Precipitation Wind Pressure Humidity
    00:00 +11°C° 0 mm 6 mps 758 mmHg 84%
    01:00 +11°C° 0 mm 6 mps 758 mmHg 85%
    02:00 +11°C° 0 mm 7 mps 757 mmHg 85%
    03:00 +11°C° 0 mm 7 mps 757 mmHg 86%
    04:00 +11°C° 0 mm 7 mps 757 mmHg 88%
    05:00 +11°C° 0 mm 7 mps 757 mmHg 89%
    06:00 +11°C° 0 mm 7 mps 757 mmHg 89%
    07:00 +11°C° 0 mm 7 mps 757 mmHg 89%
    08:00 +11°C° 0 mm 7 mps 757 mmHg 89%
    09:00 +12°C° 0 mm 8 mps 757 mmHg 84%
    10:00 +13°C° 0 mm 8 mps 757 mmHg 80%
    11:00 +15°C° 0 mm 8 mps 757 mmHg 75%
    12:00 +15°C° 0 mm 8 mps 756 mmHg 73%
    13:00 +16°C° 0 mm 8 mps 756 mmHg 71%
    14:00 +16°C° 0 mm 8 mps 756 mmHg 69%
    15:00 +16°C° 0 mm 8 mps 756 mmHg 72%
    16:00 +15°C° 0 mm 8 mps 756 mmHg 75%
    17:00 +15°C° 0 mm 8 mps 756 mmHg 78%
    18:00 +15°C° 0 mm 8 mps 756 mmHg 79%
    19:00 +13°C° 0 mm 8 mps 756 mmHg 80%
    20:00 +14°C° 0 mm 7 mps 756 mmHg 81%
    21:00 +14°C° 0 mm 7 mps 756 mmHg 82%
    22:00 +14°C° 0 mm 7 mps 755 mmHg 82%
    23:00 +14°C° 0 mm 7 mps 755 mmHg 83%
    Show more